Simultaneous Nadir Overpasses (SNOs) Predictions

Prediction of SNOs between GOES-17 and METOP-C Satellite Orbit:

Table of predicted SNOs for the next 14.0 days since TLE Epoch: 1/6/2024
Index Date Time (GOES-17) GOES-17 Lat,Lon METOP-C Lat,Lon Distance(km) Time Diff (sec)
1 01/06/2024 04:37:48 -0.01,-104.67 0.00,-106.72 228.79 80
2 01/07/2024 04:14:22 0.00,-104.66 0.69,-101.63 345.52 80
3 01/08/2024 16:33:14 -0.01,-104.67 0.31,-106.20 173.49 80
4 01/09/2024 16:15:15 -0.01,-104.67 -0.79,-101.20 395.43 80
5 01/11/2024 04:34:15 0.00,-104.65 -0.24,-105.80 130.18 80
6 01/12/2024 04:10:55 -0.00,-104.64 0.86,-100.80 438.41 80
7 01/13/2024 16:29:47 0.01,-104.65 0.17,-105.36 80.60 80
8 01/14/2024 16:11:47 0.02,-104.65 -0.94,-100.36 488.54 80
9 01/16/2024 04:30:47 -0.02,-104.63 -0.10,-104.95 36.31 80
10 01/18/2024 16:28:59 0.02,-104.64 -0.00,-104.52 13.62 80
